Total_Precipitation_Accumulation
2.10 2.54 2.83 3.35 3.95 4.39 4.81 5.01 5.08 4.96 4.79 4.44 4.14 3.89 3.64 3.42 3.17 2.98 2.88 2.82 2.75 2.97 3.44 3.21 3.49 3.42 3.45 3.50 3.55 3.71 3.63 3.35 3.54 3.66 3.21 2.59 2.12 2.09 1.86 1.82 1.89 1.95 1.97
2.03 2.55 2.87 3.07 3.50 4.02 4.50 4.83 5.01 4.90 4.52 4.16 4.01 3.92 3.88 3.47 3.20 3.17 3.33 3.15 3.15 3.18 3.22 3.45 3.39 3.44 3.62 3.59 3.56 3.72 3.50 3.14 3.42 3.80 3.86 3.13 2.69 2.19 1.67 1.80 1.95 2.16 2.27
2.31 2.61 2.81 2.94 3.19 3.59 3.90 4.01 4.19 4.17 4.01 4.05 4.07 4.04 4.08 3.67 3.61 3.62 3.63 3.41 3.42 3.44 3.45 3.41 3.32 3.35 3.19 3.30 3.39 3.41 3.42 3.34 3.26 3.57 3.93 3.51 3.02 2.58 1.95 1.83 1.88 2.16 2.47
2.01 2.21 2.50 2.77 2.94 3.18 3.49 3.71 3.78 3.73 3.66 3.79 3.85 3.76 3.58 3.46 3.63 3.91 3.84 3.58 3.37 3.26 3.09 3.03 3.19 3.21 3.00 3.09 2.74 2.91 3.10 3.10 2.95 3.25 3.31 3.34 3.34 3.24 2.53 2.07 1.89 2.04 2.25
1.75 1.86 2.07 2.39 2.51 2.84 3.11 3.32 3.58 3.67 3.62 3.70 3.69 3.73 3.56 3.55 3.61 3.62 3.68 3.48 3.31 3.00 2.67 2.70 2.92 2.89 2.80 2.72 2.62 2.82 2.64 2.56 2.63 2.89 3.10 3.19 3.29 3.16 2.96 2.51 2.44 2.39 2.25
1.53 1.75 1.93 2.22 2.38 2.51 2.65 2.76 2.98 3.25 3.42 3.47 3.44 3.49 3.45 3.43 3.39 3.38 3.28 3.08 2.94 2.74 2.43 2.32 2.51 2.64 2.69 2.67 2.62 2.69 2.56 2.58 2.71 2.73 2.80 3.06 3.09 3.06 3.20 2.74 2.56 2.58 2.31
1.27 1.49 1.65 1.83 2.04 2.15 2.26 2.41 2.71 3.05 3.13 3.10 3.05 3.17 3.25 3.26 3.20 3.18 3.04 2.83 2.60 2.39 2.32 2.34 2.46 2.49 2.55 2.43 2.48 2.53 2.54 2.71 2.79 2.72 2.66 2.78 2.81 2.92 3.20 3.15 2.81 2.68 2.47
1.03 1.16 1.43 1.74 1.92 1.91 1.98 2.13 2.44 2.72 2.76 2.68 2.82 3.09 3.17 3.20 3.12 3.17 2.86 2.60 2.39 2.34 2.44 2.43 2.29 2.25 2.34 2.21 2.48 2.41 2.47 2.71 2.78 2.53 2.81 2.82 2.80 3.08 3.32 3.43 3.52 3.18 2.85
1.02 1.09 1.19 1.41 1.55 1.62 1.69 1.84 2.27 2.55 2.64 2.72 2.84 2.98 3.10 3.07 3.04 2.95 2.67 2.41 2.43 2.38 2.51 2.47 2.38 2.25 2.32 2.42 2.71 2.66 2.60 2.83 2.83 2.85 3.06 2.99 2.90 3.04 3.17 3.37 3.64 3.75 3.34
0.86 0.94 0.99 1.11 1.22 1.40 1.67 1.86 2.02 2.35 2.46 2.56 2.72 2.77 3.00 2.90 2.74 2.70 2.48 2.24 2.14 2.22 2.43 2.56 2.45 2.31 2.36 2.55 2.75 2.74 2.89 3.07 3.11 3.20 3.28 3.22 3.03 3.12 3.15 3.18 3.43 3.78 3.71
0.77 0.82 0.96 1.09 1.19 1.33 1.55 1.69 1.74 1.97 2.17 2.31 2.51 2.50 2.50 2.57 2.64 2.49 2.23 2.15 2.18 2.28 2.33 2.43 2.43 2.37 2.42 2.57 2.64 2.61 2.93 3.08 3.11 3.09 3.11 3.08 3.23 3.20 3.08 3.18 3.36 3.65 3.74
0.83 0.88 1.05 1.18 1.26 1.40 1.45 1.50 1.58 1.80 2.01 2.21 2.42 2.49 2.48 2.54 2.58 2.44 2.25 2.25 2.31 2.31 2.24 2.30 2.31 2.20 2.23 2.46 2.49 2.55 2.85 3.01 2.89 2.91 2.94 2.72 2.79 2.88 2.74 2.89 2.96 3.11 3.37
0.93 0.98 1.09 1.13 1.13 1.24 1.39 1.43 1.45 1.66 1.90 2.13 2.43 2.60 2.65 2.63 2.56 2.38 2.17 2.08 2.02 2.04 2.03 2.05 2.08 2.14 2.30 2.42 2.43 2.46 2.45 2.48 2.56 2.79 2.90 2.68 2.67 2.58 2.60 2.64 2.62 2.69 2.80
0.95 1.02 1.03 1.16 1.16 1.19 1.33 1.35 1.42 1.53 1.81 2.06 2.26 2.40 2.30 2.24 2.25 2.13 1.94 1.84 1.81 1.82 1.87 1.96 2.07 2.15 2.23 2.30 2.40 2.46 2.36 2.33 2.38 2.50 2.57 2.56 2.52 2.45 2.56 2.49 2.51 2.58 2.75
0.85 0.87 0.88 0.95 1.00 1.15 1.29 1.22 1.26 1.34 1.50 1.70 1.80 1.95 1.93 1.89 1.86 1.91 1.93 1.91 1.94 1.88 1.96 2.04 2.05 2.05 2.04 1.98 2.05 2.14 2.15 2.27 2.21 2.11 2.12 2.14 2.19 2.18 2.24 2.09 2.28 2.55 2.71
0.60 0.57 0.76 0.86 0.82 0.85 0.97 0.95 1.01 1.16 1.32 1.41 1.51 1.76 1.88 1.88 1.87 1.94 2.07 2.09 2.03 2.00 2.02 1.98 2.02 2.00 1.74 1.93 2.00 2.00 2.09 2.18 2.17 2.06 1.95 1.85 1.85 1.79 1.82 1.79 1.89 2.20 2.43
0.60 0.55 0.64 0.79 0.79 0.80 0.82 0.93 1.06 1.20 1.31 1.45 1.60 1.81 1.94 2.02 2.05 2.03 2.14 2.08 2.07 2.13 2.08 2.01 2.00 2.03 2.10 2.17 2.00 1.85 1.82 1.91 1.95 1.92 1.89 1.66 1.56 1.75 1.73 1.79 1.77 1.79 1.97
0.67 0.63 0.61 0.62 0.67 0.74 0.81 0.96 1.25 1.50 1.56 1.71 1.91 2.03 2.17 2.12 2.11 2.11 2.14 2.23 2.31 2.34 2.32 2.25 2.17 2.14 2.12 2.12 1.91 1.90 1.81 1.79 1.79 1.80 1.84 1.83 1.75 1.82 1.95 1.91 1.83 1.72 1.69
0.63 0.67 0.71 0.73 0.78 0.84 0.88 1.06 1.29 1.61 1.81 1.86 1.96 2.12 2.23 2.27 2.28 2.28 2.26 2.37 2.50 2.47 2.40 2.33 2.34 2.28 2.28 2.35 2.14 2.15 1.98 1.95 1.95 1.98 1.99 1.96 1.86 2.02 1.99 1.88 1.85 1.80 1.79
0.73 0.74 0.77 0.89 1.08 1.15 1.16 1.28 1.42 1.56 1.75 1.83 1.94 2.12 2.35 2.41 2.43 2.59 2.69 2.67 2.63 2.51 2.51 2.50 2.46 2.45 2.47 2.71 2.53 2.37 2.17 2.15 2.14 2.24 2.23 2.28 2.11 2.11 2.06 1.89 1.90 1.89 1.92
0.85 0.83 0.85 1.01 1.26 1.39 1.43 1.53 1.68 1.77 1.79 1.86 2.01 2.20 2.37 2.47 2.55 2.75 2.84 2.83 2.78 2.77 2.73 2.64 2.66 2.63 2.61 2.79 2.55 2.36 2.19 2.23 2.38 2.38 2.31 2.36 2.40 2.18 2.18 2.12 2.02 2.00 2.02
0.97 1.00 1.04 1.20 1.43 1.59 1.57 1.65 1.76 1.78 1.82 1.83 1.98 2.11 2.26 2.28 2.37 2.66 2.76 2.88 2.93 2.88 2.79 2.74 2.58 2.58 2.55 2.46 2.33 2.23 2.20 2.29 2.41 2.48 2.43 2.39 2.39 2.16 2.08 1.93 1.90 1.96 1.86
1.01 1.08 1.14 1.33 1.59 1.77 1.80 1.88 1.80 1.88 1.92 1.94 2.07 2.21 2.28 2.32 2.42 2.55 2.60 2.70 2.78 2.74 2.62 2.63 2.57 2.49 2.48 2.46 2.23 2.01 1.98 2.04 2.07 2.22 2.39 2.32 2.21 2.01 1.82 1.76 1.74 1.65 1.53
0.99 1.07 1.18 1.27 1.38 1.59 1.80 1.92 1.96 2.01 2.01 2.05 2.11 2.20 2.30 2.29 2.37 2.50 2.61 2.72 2.81 2.89 2.79 2.65 2.52 2.48 2.44 2.32 2.15 1.95 1.85 1.97 2.08 2.18 2.26 2.15 2.04 1.84 1.68 1.61 1.52 1.48 1.55
1.01 1.06 1.18 1.24 1.31 1.39 1.52 1.59 1.72 1.84 1.91 1.98 2.06 2.10 2.13 2.22 2.34 2.41 2.52 2.51 2.58 2.61 2.59 2.51 2.48 2.43 2.34 2.19 2.11 1.92 1.80 1.92 2.10 2.17 2.18 2.05 1.99 1.87 1.77 1.70 1.64 1.63 1.66
1.10 1.12 1.19 1.21 1.24 1.33 1.52 1.60 1.68 1.81 1.96 2.07 2.11 2.06 2.01 2.08 2.13 2.21 2.24 2.27 2.16 2.16 2.09 2.07 2.07 1.99 1.88 1.77 1.65 1.62 1.63 1.72 1.90 1.90 1.96 2.07 2.05 1.99 1.90 1.80 1.72 1.68 1.65